User: anonymous
Location: Unspecified
(0.0000°N, 0.0000°E)
Time: 04:23:56
(UTC+00:00)
Language:

Tiros 10 - Orbit

View from above orbital plane
View from above orbital plane
View from above satellite
View from above satellite

Ground track
Ground track

The orbit data is extracted from the following two-line orbital elements,

1 01430U 65051A   14274.55656326  .00000192  00000-0  72750-4 0  7031
2 01430 098.0759 106.4225 0056734 014.2761 346.0015 14.39925989580667
Epoch (UTC): 01 October 2014 13:21:27
Eccentricity: 0.0056734
inclination: 98.0759°
perigee height: 718 km
apogee height: 799 km
right ascension of ascending node: 106.4225°
argument of perigee: 14.2761°
revolutions per day: 14.39925989
mean anomaly at epoch: 346.0015°
orbit number at epoch: 58066

The dashed part of the orbit path shows where the satellite is in the earth's shadow,  

DLR